Orbital Elements at Epoch 2459200.5 (2020-Dec-17.0) TDB
Reference: JPL 13 (heliocentric ecliptic J2000)
Element | Value | Uncertainty (1-sigma) | Units |
e | .103252134530467 | 4.6598e-08 | |
a | 2.414653154920702 | 1.6429e-08 | au |
q | 2.165335062524413 | 1.2059e-07 | au |
i | 6.585172118164951 | 6.9348e-06 | deg |
node | 18.71791937284095 | 3.3432e-05 | deg |
peri | 255.6566445693689 | 5.2771e-05 | deg |
M | 4.955031595750653 | 3.7977e-05 | deg |
tp | 2459181.636403882314 (2020-Nov-28.13640388) | 0.00014466 | TDB |
period | 1370.504803277283 3.75 | 1.3987e-05 3.829e-08 | d yr |
n | .2626769341771976 | 2.6809e-09 | deg/d |
Q | 2.66397124731699 | 1.8126e-08 | au |
|
| | Orbit Determination Parameters
Additional Information
|